TimeMDT,TemperatureF,Dew PointF,Humidity,Sea Level PressureIn,VisibilityMPH,Wind Direction,Wind SpeedMPH,Gust SpeedMPH,PrecipitationIn,Events,Conditions,WindDirDegrees,DateUTC
12:53 AM,24.1,17.1,75,30.29,9.0,West,11.5,-,N/A,,Clear,260,2011-10-28 06:53:00
2:53 AM,25.0,19.0,78,30.29,9.0,West,15.0,-,N/A,,Clear,260,2011-10-28 08:53:00
3:53 AM,23.0,18.0,81,30.31,9.0,West,16.1,-,N/A,,Clear,270,2011-10-28 09:53:00
4:53 AM,23.0,19.0,85,30.32,9.0,West,15.0,-,N/A,,Clear,270,2011-10-28 10:53:00
5:53 AM,23.0,19.0,85,30.35,9.0,West,13.8,-,N/A,,Clear,260,2011-10-28 11:53:00
6:53 AM,21.0,17.1,85,30.38,10.0,West,13.8,-,N/A,,Clear,280,2011-10-28 12:53:00
7:53 AM,21.9,18.0,85,30.39,8.0,West,16.1,-,N/A,,Clear,270,2011-10-28 13:53:00
8:53 AM,24.1,18.0,77,30.41,10.0,West,13.8,-,N/A,,Clear,270,2011-10-28 14:53:00
9:53 AM,27.0,21.0,78,30.41,10.0,West,15.0,-,N/A,,Clear,280,2011-10-28 15:53:00
10:53 AM,28.9,24.1,82,30.40,9.0,West,15.0,-,N/A,,Clear,280,2011-10-28 16:53:00
11:53 AM,32.0,26.1,79,30.39,9.0,West,15.0,-,N/A,,Clear,280,2011-10-28 17:53:00
12:53 PM,33.1,27.0,78,30.36,8.0,WNW,13.8,-,N/A,,Clear,290,2011-10-28 18:53:00
1:53 PM,34.0,28.0,79,30.35,7.0,North,-9999.0,-,N/A,,Clear,0,2011-10-28 19:53:00
2:53 PM,36.0,28.0,73,30.33,8.0,West,10.4,-,N/A,,Clear,280,2011-10-28 20:53:00
3:53 PM,36.0,28.0,73,30.32,10.0,WSW,4.6,-,N/A,,Clear,240,2011-10-28 21:53:00
4:53 PM,36.0,26.1,67,30.32,10.0,North,-9999.0,-,N/A,,Clear,0,2011-10-28 22:53:00
5:53 PM,34.0,25.0,70,30.32,10.0,SW,8.1,-,N/A,,Clear,220,2011-10-28 23:53:00
6:53 PM,32.0,21.0,64,30.32,10.0,SSW,8.1,-,N/A,,Clear,210,2011-10-29 00:53:00
7:53 PM,33.1,18.0,54,30.30,10.0,SSW,8.1,-,N/A,,Clear,210,2011-10-29 01:53:00
8:53 PM,33.1,17.1,52,30.28,10.0,SSW,8.1,-,N/A,,Clear,200,2011-10-29 02:53:00
9:53 PM,34.0,18.0,52,30.24,10.0,South,10.4,-,N/A,,Clear,190,2011-10-29 03:53:00
10:53 PM,35.1,18.0,50,30.21,10.0,South,12.7,-,N/A,,Clear,190,2011-10-29 04:53:00
11:53 PM,35.1,19.9,54,30.16,10.0,SSW,10.4,-,N/A,,Clear,200,2011-10-29 05:53:00